#timestamp,LO_Frequency,Hit,StdDev 
1609396455.7,286046984.1,P
1609396475.6,286046982.5,P
1609396495.4,286046984.7,P
1609396515.2,286046982.6,Y
1609396535.1,286046999.1,P
1609396536.0,286046999.1,N
1609396555.8,286046998.3,N
1609396575.7,286047000.0,N
1609396595.5,286046999.7,N
1609396615.3,286047001.6,N
1609396635.2,286047002.6,N
1609396655.0,286047002.1,N
1609396655.9,286047002.1,N
1609396675.7,286047002.5,N
1609396695.6,286047000.5,N
1609396715.4,286046998.2,N
1609396735.3,286046996.9,N
1609396755.1,286046997.5,N
1609396756.0,286046997.5,N
1609396775.8,286046997.4,N
1609396795.7,286046996.1,N
1609396815.5,286046996.3,N
1609396835.3,286046997.4,N
1609396855.2,286046993.5,N
1609396875.0,286046995.1,N
1609396875.9,286046995.1,N
1609396895.8,286046997.2,N
1609396915.6,286046996.8,N
1609396935.4,286046999.0,N
1609396955.3,286046998.3,N
1609396975.1,286046998.7,N
1609396995.8,286046999.1,N
1609397015.7,286046999.1,N
1609397035.5,286046999.2,N
1609397055.4,286046998.4,N
1609397075.2,286046997.2,N
1609397095.0,286046997.3,N
1609397095.9,286046997.3,N
1609397115.8,286046996.9,N
1609397135.6,286046996.6,N
1609397155.4,286046997.4,N
1609397175.3,286046994.9,N
1609397195.1,286046997.1,N
1609397215.9,286046995.9,N
1609397235.7,286046993.3,Y
1609397255.5,286046995.6,P
1609397275.4,286046995.2,P
1609397295.2,286046997.8,N
1609397315.1,286046997.8,N
1609397316.0,286046997.8,N
1609397335.8,286046997.1,N
1609397355.6,286046997.3,N
1609397375.5,286046996.3,Y
1609397395.3,286046999.3,P
1609397415.1,286047001.2,N
1609397435.9,286047000.6,N
1609397455.7,286047000.8,N
1609397475.6,286047001.0,N
1609397495.4,286047001.1,N
1609397515.2,286046999.0,N
1609397535.1,286046996.7,N
1609397536.0,286046996.7,N
1609397555.8,286046996.8,N
1609397575.6,286046999.2,N
1609397595.5,286046999.0,N
1609397615.3,286046997.2,N
1609397635.2,286046996.6,N
1609397655.9,286047001.1,N
1609397675.7,286046999.4,N
1609397695.6,286046997.6,N
1609397715.4,286046995.3,N
1609397735.2,286046995.6,N
1609397755.1,286046997.3,N
1609397756.0,286046997.3,N
1609397775.8,286046998.5,N
1609397795.7,286046999.3,N
1609397815.5,286046999.3,N
1609397835.3,286046995.0,N
1609397855.2,286046995.5,N
1609397875.0,286046996.0,N
1609397875.9,286046996.0,N
1609397895.8,286046996.7,N
1609397915.6,286046997.9,N
1609397935.4,286046996.6,N
1609397955.3,286046997.0,N
1609397975.1,286046999.1,N
1609397995.8,286046998.8,N
